Location: Newark
(45.5000°N, 11.4167°E)
Time: 11:45:02
(UTC+00:00)

Transit 2A Rocket - Pass Details

Date: 26 August 2019
Orbit: 592 x 911 km, 66.7° (Epoch: 19 September)

Event Time Altitude Azimuth Distance (km) Brightness Sun altitude
Rises 03:54:59 0° 307° (NW) 2,947 7.7 -6.3°
Reaches altitude 10° 03:58:57 10° 273° (W) 1,975 6.6 -5.6°
Maximum altitude 04:00:14 11° 256° (WSW) 1,884 6.4 -5.4°
Drops below altitude 10° 04:01:30 10° 239° (WSW) 1,945 6.5 -5.2°
Sets 04:05:19 0° 204° (SSW) 2,817 7.5 -4.6°
